AZQ57N LTFM-EDDF

Flight info

Callsign AZQ57N
Flight time 1h 43m
Altitude 32000
Route VADEN1D/35L VADEN N618 BAKLO DCT XANEX DCT UTEKA DCT BABIT DCT GOTAR DCT ABRUK DCT SIMBA DCT AKINI T161 DEBHI DEBHI1B
Aircraft B748/H-SDE3FGHIM1M2RWXY/LB1

Departure

Time 2026-05-05 16:42
Airport İstanbul Airport (LTFM)

Arrival

Time 2026-05-05 18:25
Airport Frankfurt Main Airport (EDDF)
Time Latitude Longitude Altitude Speed Heading
2026-05-05 15:23 41.27244 28.72102 310 ft 0 kts 269°
2026-05-05 16:29 41.27244 28.72111 311 ft 2 kts 267°
2026-05-05 16:29 41.27245 28.72133 309 ft 2 kts 266°
2026-05-05 16:30 41.27246 28.72155 307 ft 2 kts 264°
2026-05-05 16:30 41.27248 28.72177 310 ft 2 kts 261°
2026-05-05 16:30 41.27251 28.72199 310 ft 2 kts 257°
2026-05-05 16:30 41.27255 28.72220 310 ft 2 kts 251°
2026-05-05 16:31 41.27261 28.72241 310 ft 2 kts 242°
2026-05-05 16:31 41.27270 28.72259 310 ft 2 kts 226°
2026-05-05 16:31 41.27283 28.72272 308 ft 2 kts 200°
2026-05-05 16:31 41.27296 28.72276 308 ft 1 kts 180°
2026-05-05 16:32 41.27298 28.72276 308 ft 0 kts 179°
2026-05-05 16:34 41.27294 28.72276 308 ft 2 kts 179°
2026-05-05 16:34 41.27268 28.72277 308 ft 4 kts 179°
2026-05-05 16:34 41.27243 28.72278 310 ft 4 kts 178°
2026-05-05 16:34 41.27206 28.72278 311 ft 7 kts 179°
2026-05-05 16:35 41.27148 28.72279 314 ft 10 kts 179°
2026-05-05 16:35 41.27069 28.72280 314 ft 13 kts 179°
2026-05-05 16:35 41.26971 28.72282 315 ft 15 kts 179°
2026-05-05 16:35 41.26854 28.72285 313 ft 18 kts 179°
2026-05-05 16:36 41.26719 28.72288 314 ft 21 kts 179°
2026-05-05 16:36 41.26567 28.72290 314 ft 23 kts 179°
2026-05-05 16:36 41.26405 28.72292 316 ft 22 kts 179°
2026-05-05 16:36 41.26292 28.72294 317 ft 10 kts 179°
2026-05-05 16:37 41.26231 28.72297 315 ft 4 kts 167°
2026-05-05 16:37 41.26211 28.72316 319 ft 2 kts 132°
2026-05-05 16:37 41.26204 28.72340 317 ft 3 kts 105°
2026-05-05 16:37 41.26205 28.72374 317 ft 5 kts 83°
2026-05-05 16:38 41.26212 28.72445 318 ft 10 kts 82°
2026-05-05 16:38 41.26224 28.72507 317 ft 3 kts 58°
2026-05-05 16:38 41.26242 28.72527 317 ft 4 kts 33°
2026-05-05 16:38 41.26260 28.72533 319 ft 2 kts
2026-05-05 16:39 41.26270 28.72532 318 ft 0 kts 355°
2026-05-05 16:39 41.26271 28.72532 318 ft 0 kts 355°
2026-05-05 16:39 41.26273 28.72531 318 ft 0 kts 355°
2026-05-05 16:41 41.26314 28.72527 319 ft 22 kts 356°
2026-05-05 16:41 41.26713 28.72518 314 ft 93 kts 359°
2026-05-05 16:41 41.27572 28.72502 293 ft 151 kts 359°
2026-05-05 16:41 41.28766 28.72498 418 ft 185 kts 359°
2026-05-05 16:42 41.30057 28.72469 1243 ft 184 kts 359°
2026-05-05 16:42 41.31359 28.72426 1901 ft 186 kts
2026-05-05 16:42 41.32619 28.72475 2216 ft 179 kts
2026-05-05 16:42 41.33839 28.72464 2423 ft 177 kts 360°
2026-05-05 16:43 41.35200 28.72445 2057 ft 202 kts 360°
2026-05-05 16:43 41.36555 28.72150 1881 ft 203 kts 334°
2026-05-05 16:43 41.37607 28.70811 1868 ft 216 kts 306°
2026-05-05 16:43 41.38340 28.69051 1857 ft 218 kts 302°
2026-05-05 16:44 41.39128 28.67330 1851 ft 217 kts 308°
2026-05-05 16:44 41.39990 28.65624 1964 ft 237 kts 307°
2026-05-05 16:44 41.40846 28.63830 3519 ft 224 kts 306°
2026-05-05 16:44 41.41683 28.62049 4894 ft 229 kts 307°
2026-05-05 16:45 41.42531 28.60252 6326 ft 230 kts 308°
2026-05-05 16:45 41.43396 28.58426 7641 ft 237 kts 308°
2026-05-05 16:45 41.44287 28.56543 8963 ft 243 kts 309°
2026-05-05 16:45 41.45205 28.54598 10194 ft 252 kts 310°
2026-05-05 16:46 41.46133 28.52623 10679 ft 245 kts 309°
2026-05-05 16:46 41.47025 28.50718 10611 ft 251 kts 310°
2026-05-05 16:46 41.48037 28.48611 11076 ft 284 kts 309°
2026-05-05 16:46 41.49137 28.46279 11819 ft 309 kts 308°
2026-05-05 16:47 41.50322 28.43742 12559 ft 335 kts 307°
2026-05-05 16:47 41.51586 28.41037 13555 ft 348 kts 307°
2026-05-05 16:47 41.52885 28.38261 14652 ft 356 kts 307°
2026-05-05 16:47 41.54196 28.35467 15717 ft 363 kts 307°
2026-05-05 16:48 41.55550 28.32582 16733 ft 370 kts 307°
2026-05-05 16:48 41.56924 28.29645 17737 ft 377 kts 307°
2026-05-05 16:48 41.58326 28.26644 18640 ft 383 kts 307°
2026-05-05 16:48 41.59748 28.23599 19469 ft 389 kts 307°
2026-05-05 16:49 41.61190 28.20508 20267 ft 394 kts 307°
2026-05-05 16:49 41.62653 28.17370 20994 ft 401 kts 307°
2026-05-05 16:49 41.64137 28.14181 21761 ft 406 kts 307°
2026-05-05 16:49 41.65635 28.10959 22490 ft 410 kts 307°
2026-05-05 16:50 41.67150 28.07698 23201 ft 415 kts 307°
2026-05-05 16:50 41.68662 28.04440 23844 ft 420 kts 307°
2026-05-05 16:50 41.70223 28.01077 24067 ft 429 kts 306°
2026-05-05 16:50 41.71794 27.97681 24057 ft 427 kts 306°
2026-05-05 16:51 41.73349 27.94309 24059 ft 424 kts 306°
2026-05-05 16:51 41.74901 27.90951 24057 ft 424 kts 307°
2026-05-05 16:51 41.76456 27.87590 24055 ft 424 kts 306°
2026-05-05 16:51 41.78006 27.84229 24050 ft 423 kts 306°
2026-05-05 16:52 41.79553 27.80865 24051 ft 424 kts 306°
2026-05-05 16:52 41.81082 27.77540 24065 ft 424 kts 306°
2026-05-05 16:52 41.82629 27.74176 24063 ft 424 kts 306°
2026-05-05 16:52 41.84174 27.70808 24069 ft 424 kts 306°
2026-05-05 16:53 41.85722 27.67432 24061 ft 424 kts 306°
2026-05-05 16:53 41.87266 27.64062 24060 ft 429 kts 306°
2026-05-05 16:53 41.88869 27.60571 24077 ft 449 kts 306°
2026-05-05 16:53 41.90506 27.56983 24705 ft 449 kts 306°
2026-05-05 16:54 41.92128 27.53411 25483 ft 447 kts 306°
2026-05-05 16:54 41.93750 27.49852 26160 ft 446 kts 306°
2026-05-05 16:54 41.95373 27.46298 26838 ft 445 kts 305°
2026-05-05 16:54 41.96987 27.42750 27459 ft 444 kts 305°
2026-05-05 16:55 41.98594 27.39204 28072 ft 443 kts 305°
2026-05-05 16:55 42.00177 27.35714 28634 ft 443 kts 305°
2026-05-05 16:55 42.01784 27.32171 29188 ft 442 kts 305°
2026-05-05 16:55 42.03382 27.28641 29708 ft 442 kts 305°
2026-05-05 16:56 42.04977 27.25111 30215 ft 441 kts 304°
2026-05-05 16:56 42.06586 27.21602 30636 ft 437 kts 310°
2026-05-05 16:56 42.08538 27.18484 31012 ft 434 kts 316°
2026-05-05 16:56 42.10580 27.15561 31376 ft 433 kts 316°
2026-05-05 16:57 42.12631 27.12583 31525 ft 432 kts 315°
2026-05-05 16:57 42.14620 27.09574 31635 ft 429 kts 315°
2026-05-05 16:57 42.16621 27.06607 32032 ft 427 kts 315°
2026-05-05 16:57 42.18611 27.03626 32365 ft 427 kts 315°
2026-05-05 16:58 42.22616 26.97536 32579 ft 438 kts 315°
2026-05-05 16:58 42.24654 26.94456 32759 ft 441 kts 315°
2026-05-05 16:58 42.26563 26.91190 32968 ft 445 kts 308°
2026-05-05 16:59 42.28374 26.87774 33158 ft 448 kts 308°
2026-05-05 16:59 42.31043 26.82646 33444 ft 451 kts 308°
2026-05-05 16:59 42.34686 26.75678 33833 ft 455 kts 308°
2026-05-05 16:59 42.38298 26.68749 34191 ft 458 kts 308°
2026-05-05 17:00 42.43296 26.59134 34651 ft 461 kts 307°
2026-05-05 17:00 42.49283 26.47575 35189 ft 463 kts 307°
2026-05-05 17:00 42.51138 26.43987 35366 ft 464 kts 307°
2026-05-05 17:00 42.52988 26.40403 35532 ft 464 kts 307°
2026-05-05 17:01 42.54840 26.36809 35705 ft 464 kts 306°
2026-05-05 17:01 42.56689 26.33218 35883 ft 465 kts 306°
2026-05-05 17:01 42.58541 26.29617 36032 ft 465 kts 306°
2026-05-05 17:01 42.60378 26.26043 36017 ft 470 kts 306°
2026-05-05 17:02 42.63615 26.18326 36019 ft 466 kts 297°
2026-05-05 17:02 42.66417 26.10434 36012 ft 463 kts 297°
2026-05-05 17:03 42.69281 26.02520 36018 ft 470 kts 297°
2026-05-05 17:03 42.72143 25.94489 36014 ft 472 kts 297°
2026-05-05 17:04 42.75012 25.86471 36014 ft 471 kts 297°
2026-05-05 17:04 42.77866 25.78442 36010 ft 471 kts 297°
2026-05-05 17:05 42.80728 25.70382 36007 ft 473 kts 297°
2026-05-05 17:05 42.83563 25.62366 35981 ft 475 kts 298°
2026-05-05 17:06 42.86398 25.54332 35994 ft 465 kts 298°
2026-05-05 17:06 42.89202 25.46366 35991 ft 466 kts 298°
2026-05-05 17:07 42.92005 25.38374 35992 ft 467 kts 298°
2026-05-05 17:07 42.94805 25.30369 35997 ft 467 kts 298°
2026-05-05 17:08 42.97599 25.22358 35997 ft 467 kts 298°
2026-05-05 17:08 43.00371 25.14389 35996 ft 466 kts 298°
2026-05-05 17:09 43.03141 25.06399 36000 ft 465 kts 298°
2026-05-05 17:09 43.05910 24.98391 36002 ft 466 kts 297°
2026-05-05 17:10 43.08681 24.90355 36000 ft 466 kts 297°
2026-05-05 17:10 43.11442 24.82320 36007 ft 465 kts 297°
2026-05-05 17:11 43.14175 24.74348 36005 ft 465 kts 297°
2026-05-05 17:11 43.16919 24.66316 36007 ft 465 kts 297°
2026-05-05 17:12 43.19654 24.58290 36001 ft 464 kts 297°
2026-05-05 17:12 43.22367 24.50305 35992 ft 463 kts 297°
2026-05-05 17:13 43.25081 24.42290 35988 ft 463 kts 297°
2026-05-05 17:13 43.27334 24.35623 35986 ft 463 kts 297°
2026-05-05 17:14 43.30039 24.27592 35990 ft 462 kts 297°
2026-05-05 17:14 43.32733 24.19574 35988 ft 462 kts 297°
2026-05-05 17:15 43.35418 24.11556 35980 ft 462 kts 297°
2026-05-05 17:15 43.38100 24.03523 35980 ft 462 kts 297°
2026-05-05 17:16 43.40765 23.95518 35979 ft 462 kts 297°
2026-05-05 17:16 43.43445 23.87445 35981 ft 463 kts 297°
2026-05-05 17:17 43.46115 23.79375 35980 ft 463 kts 296°
2026-05-05 17:17 43.48781 23.71293 35979 ft 463 kts 296°
2026-05-05 17:18 43.51442 23.63203 35975 ft 463 kts 296°
2026-05-05 17:18 43.54079 23.55162 35978 ft 463 kts 296°
2026-05-05 17:19 43.56732 23.47048 35975 ft 463 kts 296°
2026-05-05 17:19 43.59376 23.38938 35975 ft 463 kts 296°
2026-05-05 17:20 43.62002 23.30855 35972 ft 464 kts 296°
2026-05-05 17:20 43.64637 23.22722 35974 ft 464 kts 296°
2026-05-05 17:21 43.67265 23.14587 35978 ft 463 kts 296°
2026-05-05 17:22 43.71208 23.02331 35984 ft 467 kts 296°
2026-05-05 17:22 43.73818 22.94185 35978 ft 464 kts 295°
2026-05-05 17:23 43.76428 22.86020 35973 ft 463 kts 295°
2026-05-05 17:23 43.79025 22.77863 35974 ft 462 kts 295°
2026-05-05 17:24 43.81616 22.69706 35968 ft 463 kts 295°
2026-05-05 17:24 43.84197 22.61550 35968 ft 462 kts 295°
2026-05-05 17:25 43.86758 22.53437 35963 ft 462 kts 295°
2026-05-05 17:25 43.89327 22.45270 35957 ft 458 kts 295°
2026-05-05 17:25 43.90606 22.41289 35953 ft 446 kts 300°
2026-05-05 17:26 43.92237 22.37666 35976 ft 444 kts 309°
2026-05-05 17:26 43.96264 22.31064 35983 ft 452 kts 311°
2026-05-05 17:27 44.00400 22.24375 35980 ft 460 kts 311°
2026-05-05 17:27 44.16296 21.98451 35978 ft 461 kts 310°
2026-05-05 17:28 44.32886 21.71147 35974 ft 461 kts 310°
2026-05-05 17:28 44.49408 21.43695 35949 ft 461 kts 310°
2026-05-05 17:29 44.71761 21.06127 35940 ft 460 kts 309°
2026-05-05 17:29 45.04469 20.50247 35937 ft 461 kts 309°
2026-05-05 17:30 45.36712 19.94061 35940 ft 462 kts 308°
2026-05-05 17:30 45.64868 19.44055 35925 ft 465 kts 307°
2026-05-05 17:31 45.81006 19.14993 35925 ft 467 kts 307°
2026-05-05 17:31 45.96440 18.84962 35932 ft 467 kts 298°
2026-05-05 17:32 46.09694 18.52696 35959 ft 468 kts 298°
2026-05-05 17:32 46.22979 18.20325 35956 ft 469 kts 300°
2026-05-05 17:33 46.36484 17.88261 35943 ft 469 kts 300°
2026-05-05 17:33 46.49971 17.55863 35937 ft 469 kts 299°
2026-05-05 17:34 46.63362 17.23312 35944 ft 469 kts 299°
2026-05-05 17:34 46.76689 16.90523 35934 ft 470 kts 298°
2026-05-05 17:35 46.81016 16.79795 35925 ft 469 kts 298°
2026-05-05 17:35 46.84319 16.71575 35918 ft 469 kts 298°
2026-05-05 17:36 46.87618 16.63341 35906 ft 469 kts 298°
2026-05-05 17:36 46.90905 16.55112 35903 ft 468 kts 298°
2026-05-05 17:37 46.94166 16.46923 35898 ft 469 kts 298°
2026-05-05 17:37 46.97444 16.38670 35899 ft 468 kts 298°
2026-05-05 17:38 47.00708 16.30423 35892 ft 468 kts 298°
2026-05-05 17:38 47.08667 16.10210 35884 ft 468 kts 298°
2026-05-05 17:39 47.21553 15.77162 35860 ft 468 kts 297°
2026-05-05 17:39 47.34415 15.43767 35847 ft 469 kts 297°
2026-05-05 17:40 47.47185 15.10195 35838 ft 469 kts 297°
2026-05-05 17:40 47.59874 14.76416 35812 ft 469 kts 296°
2026-05-05 17:41 47.72465 14.42464 35778 ft 468 kts 296°
2026-05-05 17:41 47.83675 14.11868 35765 ft 468 kts 296°
2026-05-05 17:42 47.86778 14.03337 35764 ft 468 kts 296°
2026-05-05 17:42 47.89874 13.94795 35761 ft 469 kts 295°
2026-05-05 17:43 47.93011 13.86283 35763 ft 469 kts 297°
2026-05-05 17:43 47.96309 13.77853 35769 ft 469 kts 297°
2026-05-05 17:44 47.99538 13.69440 35772 ft 469 kts 297°
2026-05-05 17:44 48.02795 13.60982 35769 ft 469 kts 297°
2026-05-05 17:45 48.06045 13.52500 35773 ft 469 kts 296°
2026-05-05 17:45 48.09286 13.44014 35772 ft 469 kts 296°
2026-05-05 17:46 48.12502 13.35574 35773 ft 470 kts 296°
2026-05-05 17:46 48.15729 13.27070 35776 ft 469 kts 296°
2026-05-05 17:47 48.18951 13.18555 35777 ft 470 kts 296°
2026-05-05 17:47 48.22175 13.10006 35783 ft 470 kts 296°
2026-05-05 17:48 48.25395 13.01441 35786 ft 470 kts 296°
2026-05-05 17:48 48.28586 12.92928 35788 ft 471 kts 296°
2026-05-05 17:49 48.31793 12.84341 35792 ft 472 kts 295°
2026-05-05 17:49 48.35006 12.75711 35785 ft 472 kts 295°
2026-05-05 17:50 48.38214 12.67067 35794 ft 473 kts 295°
2026-05-05 17:50 48.41421 12.58396 35798 ft 474 kts 295°
2026-05-05 17:51 48.44600 12.49773 35812 ft 474 kts 295°
2026-05-05 17:51 48.47808 12.41043 35806 ft 476 kts 295°
2026-05-05 17:52 48.51008 12.32305 35817 ft 476 kts 295°
2026-05-05 17:52 48.54204 12.23549 35814 ft 476 kts 295°
2026-05-05 17:53 48.57400 12.14765 35815 ft 477 kts 295°
2026-05-05 17:53 48.60591 12.05965 35817 ft 478 kts 294°
2026-05-05 17:54 48.63781 11.97134 35816 ft 479 kts 294°
2026-05-05 17:54 48.66971 11.88277 35812 ft 480 kts 294°
2026-05-05 17:55 48.70141 11.79444 35813 ft 481 kts 294°
2026-05-05 17:55 48.73337 11.70509 35809 ft 484 kts 294°
2026-05-05 17:56 48.76573 11.61428 35812 ft 492 kts 294°
2026-05-05 17:56 48.79836 11.52247 35815 ft 495 kts 294°
2026-05-05 17:57 48.83071 11.43106 35812 ft 495 kts 294°
2026-05-05 17:57 48.86329 11.33870 35812 ft 494 kts 294°
2026-05-05 17:58 48.89574 11.24635 35815 ft 496 kts 294°
2026-05-05 17:58 48.92805 11.15414 35539 ft 488 kts 294°
2026-05-05 17:58 48.94397 11.10855 34932 ft 489 kts 294°
2026-05-05 17:59 48.96166 11.06415 34298 ft 494 kts 303°
2026-05-05 17:59 48.98448 11.02467 33684 ft 499 kts 314°
2026-05-05 17:59 49.00984 10.98869 32989 ft 498 kts 314°
2026-05-05 17:59 49.02671 10.96507 32527 ft 498 kts 314°
2026-05-05 18:00 49.05226 10.92947 31837 ft 496 kts 315°
2026-05-05 18:00 49.07764 10.89379 31175 ft 495 kts 314°
2026-05-05 18:00 49.11097 10.84653 30310 ft 492 kts 315°
2026-05-05 18:00 49.13608 10.81101 29629 ft 490 kts 315°
2026-05-05 18:01 49.15288 10.78709 29123 ft 488 kts 312°
2026-05-05 18:01 49.17483 10.74879 28442 ft 482 kts 305°
2026-05-05 18:01 49.19444 10.70754 27742 ft 478 kts 302°
2026-05-05 18:01 49.21307 10.66565 27057 ft 474 kts 302°
2026-05-05 18:02 49.23267 10.62528 26542 ft 468 kts 307°
2026-05-05 18:02 49.25319 10.58689 25665 ft 469 kts 307°
2026-05-05 18:02 49.27338 10.54789 25102 ft 463 kts 305°
2026-05-05 18:02 49.29263 10.50859 24463 ft 459 kts 304°
2026-05-05 18:03 49.31175 10.46966 23947 ft 453 kts 306°
2026-05-05 18:03 49.33084 10.43199 23849 ft 440 kts 306°
2026-05-05 18:03 49.34929 10.39556 23830 ft 423 kts 306°
2026-05-05 18:03 49.36679 10.36036 23827 ft 408 kts 305°
2026-05-05 18:04 49.38381 10.32595 23828 ft 404 kts 305°
2026-05-05 18:04 49.40074 10.29195 23827 ft 408 kts 306°
2026-05-05 18:04 49.41775 10.25791 23821 ft 394 kts 305°
2026-05-05 18:04 49.43398 10.22532 23812 ft 373 kts 305°
2026-05-05 18:05 49.44938 10.19423 23811 ft 358 kts 305°
2026-05-05 18:05 49.46438 10.16389 23380 ft 356 kts 305°
2026-05-05 18:05 49.47933 10.13367 22945 ft 352 kts 305°
2026-05-05 18:05 49.49412 10.10383 22505 ft 349 kts 305°
2026-05-05 18:06 49.50873 10.07427 22063 ft 345 kts 305°
2026-05-05 18:06 49.51832 10.05481 21773 ft 343 kts 305°
2026-05-05 18:06 49.53750 10.01589 21170 ft 339 kts 305°
2026-05-05 18:06 49.55152 9.98743 20740 ft 336 kts 305°
2026-05-05 18:07 49.56558 9.95885 20315 ft 333 kts 304°
2026-05-05 18:07 49.57967 9.93016 19886 ft 330 kts 304°
2026-05-05 18:07 49.59309 9.90285 19825 ft 318 kts 304°
2026-05-05 18:07 49.60649 9.87548 19817 ft 323 kts 304°
2026-05-05 18:08 49.62013 9.84759 19828 ft 328 kts 304°
2026-05-05 18:08 49.63390 9.81946 19831 ft 329 kts 304°
2026-05-05 18:08 49.64770 9.79125 19830 ft 330 kts 304°
2026-05-05 18:08 49.66152 9.76294 19825 ft 330 kts 304°
2026-05-05 18:09 49.67533 9.73462 19829 ft 330 kts 304°
2026-05-05 18:09 49.68914 9.70627 19827 ft 330 kts 304°
2026-05-05 18:09 49.70295 9.67790 19827 ft 330 kts 304°
2026-05-05 18:09 49.71673 9.64956 19826 ft 330 kts 304°
2026-05-05 18:10 49.73049 9.62121 19824 ft 330 kts 304°
2026-05-05 18:10 49.74428 9.59278 19828 ft 330 kts 304°
2026-05-05 18:10 49.75807 9.56434 19825 ft 331 kts 304°
2026-05-05 18:10 49.77184 9.53588 19825 ft 330 kts 304°
2026-05-05 18:11 49.78536 9.50793 19658 ft 326 kts 304°
2026-05-05 18:11 49.79933 9.47898 18425 ft 348 kts 304°
2026-05-05 18:11 49.81434 9.44779 17233 ft 368 kts 304°
2026-05-05 18:11 49.82935 9.41676 16158 ft 357 kts 304°
2026-05-05 18:12 49.84410 9.38618 15057 ft 351 kts 304°
2026-05-05 18:12 49.85829 9.35595 13987 ft 341 kts 298°
2026-05-05 18:12 49.86737 9.32277 12837 ft 330 kts 285°
2026-05-05 18:12 49.87394 9.28852 12033 ft 328 kts 283°
2026-05-05 18:13 49.88001 9.25555 11959 ft 310 kts 284°
2026-05-05 18:13 49.88592 9.22469 11709 ft 286 kts 284°
2026-05-05 18:13 49.89166 9.19494 11521 ft 289 kts 284°
2026-05-05 18:13 49.89738 9.16491 11210 ft 291 kts 284°
2026-05-05 18:14 49.90299 9.13532 11000 ft 289 kts 284°
2026-05-05 18:14 49.90867 9.10544 10758 ft 288 kts 284°
2026-05-05 18:14 49.91434 9.07560 10548 ft 287 kts 284°
2026-05-05 18:14 49.91937 9.04905 10341 ft 286 kts 284°
2026-05-05 18:15 49.92498 9.01939 10112 ft 285 kts 284°
2026-05-05 18:15 49.93056 8.98984 9887 ft 285 kts 284°
2026-05-05 18:15 49.93625 8.96086 9649 ft 285 kts 290°
2026-05-05 18:15 49.94716 8.93527 9422 ft 288 kts 314°
2026-05-05 18:16 49.96416 8.91857 9164 ft 293 kts 339°
2026-05-05 18:16 49.98434 8.91399 8910 ft 295 kts 358°
2026-05-05 18:16 50.00488 8.91547 8646 ft 296 kts 10°
2026-05-05 18:16 50.02369 8.92771 8450 ft 295 kts 37°
2026-05-05 18:17 50.03722 8.95136 8215 ft 293 kts 64°
2026-05-05 18:17 50.04497 8.98047 7982 ft 292 kts 71°
2026-05-05 18:17 50.05155 9.00991 7782 ft 290 kts 72°
2026-05-05 18:17 50.05910 9.03897 7554 ft 290 kts 57°
2026-05-05 18:18 50.07332 9.06093 7372 ft 289 kts 29°
2026-05-05 18:18 50.09222 9.07063 7154 ft 287 kts
2026-05-05 18:18 50.11167 9.06609 6954 ft 283 kts 334°
2026-05-05 18:18 50.12737 9.04854 6750 ft 278 kts 306°
2026-05-05 18:19 50.13666 9.02257 6536 ft 274 kts 288°
2026-05-05 18:19 50.13973 8.99402 6278 ft 264 kts 262°
2026-05-05 18:19 50.13426 8.96711 5580 ft 262 kts 236°
2026-05-05 18:19 50.12537 8.94278 5268 ft 257 kts 245°
2026-05-05 18:20 50.11888 8.91711 4912 ft 252 kts 248°
2026-05-05 18:20 50.11283 8.89163 4563 ft 249 kts 249°
2026-05-05 18:20 50.10690 8.86654 4199 ft 244 kts 249°
2026-05-05 18:20 50.10119 8.84265 3824 ft 224 kts 249°
2026-05-05 18:21 50.09612 8.82144 3505 ft 199 kts 249°
2026-05-05 18:21 50.09156 8.80237 3220 ft 177 kts 250°
2026-05-05 18:21 50.08739 8.78494 2980 ft 170 kts 250°
2026-05-05 18:21 50.08324 8.76755 2797 ft 170 kts 249°
2026-05-05 18:22 50.07919 8.75042 2556 ft 168 kts 251°
2026-05-05 18:22 50.07515 8.73336 2354 ft 167 kts 250°
2026-05-05 18:22 50.07106 8.71627 2135 ft 169 kts 250°
2026-05-05 18:22 50.06698 8.69915 1912 ft 166 kts 250°
2026-05-05 18:23 50.06304 8.68271 1730 ft 160 kts 250°
2026-05-05 18:23 50.05924 8.66677 1490 ft 159 kts 250°
2026-05-05 18:23 50.05543 8.65065 1281 ft 158 kts 250°
2026-05-05 18:23 50.05162 8.63478 1073 ft 154 kts 249°
2026-05-05 18:24 50.04780 8.61917 839 ft 154 kts 250°
2026-05-05 18:24 50.04417 8.60341 661 ft 156 kts 250°
2026-05-05 18:24 50.04031 8.58762 422 ft 155 kts 249°
2026-05-05 18:24 50.03686 8.57328 365 ft 115 kts 250°
2026-05-05 18:25 50.03484 8.56484 359 ft 54 kts 249°
2026-05-05 18:25 50.03407 8.56175 359 ft 43 kts 249°
2026-05-05 18:25 50.03296 8.55714 360 ft 27 kts 243°
2026-05-05 18:25 50.03187 8.55513 363 ft 18 kts 224°
2026-05-05 18:26 50.03122 8.55429 362 ft 10 kts 218°
2026-05-05 18:26 50.03079 8.55375 364 ft 0 kts 219°
2026-05-05 18:27 50.03079 8.55374 364 ft 1 kts 219°
2026-05-05 18:27 50.03070 8.55363 367 ft 3 kts 219°
2026-05-05 18:27 50.03043 8.55329 368 ft 7 kts 219°
2026-05-05 18:28 50.02949 8.55273 367 ft 5 kts 169°
2026-05-05 18:28 50.02932 8.55287 365 ft 1 kts 139°
2026-05-05 18:28 50.02930 8.55297 367 ft 1 kts 116°
2026-05-05 18:29 50.02930 8.55308 368 ft 2 kts 91°
2026-05-05 18:29 50.02940 8.55394 363 ft 10 kts 73°
2026-05-05 18:29 50.02970 8.55493 366 ft 9 kts 70°
2026-05-05 18:29 50.02992 8.55594 365 ft 11 kts 71°
2026-05-05 18:30 50.03020 8.55722 363 ft 14 kts 70°
2026-05-05 18:30 50.03055 8.55869 363 ft 16 kts 70°
2026-05-05 18:30 50.03095 8.56041 366 ft 18 kts 70°
2026-05-05 18:30 50.03140 8.56232 366 ft 20 kts 69°
2026-05-05 18:31 50.03191 8.56440 364 ft 21 kts 69°
2026-05-05 18:31 50.03243 8.56665 367 ft 23 kts 71°
2026-05-05 18:31 50.03271 8.56792 362 ft 0 kts 71°
2026-05-05 18:33 50.03272 8.56800 362 ft 1 kts 83°
2026-05-05 18:33 50.03269 8.56809 362 ft 1 kts 103°
2026-05-05 18:33 50.03260 8.56832 367 ft 5 kts 126°
2026-05-05 18:33 50.03218 8.56868 362 ft 8 kts 164°
2026-05-05 18:34 50.03164 8.56895 367 ft 8 kts 161°
2026-05-05 18:34 50.03111 8.56926 365 ft 8 kts 160°
2026-05-05 18:34 50.03057 8.56957 364 ft 8 kts 160°
2026-05-05 18:34 50.03007 8.56984 367 ft 4 kts 169°
2026-05-05 18:35 50.02986 8.56980 367 ft 3 kts 193°
2026-05-05 18:35 50.02970 8.56964 368 ft 3 kts 220°
2026-05-05 18:35 50.02963 8.56948 368 ft 0 kts 240°
2026-05-05 18:35 50.02962 8.56938 369 ft 2 kts 257°
2026-05-05 18:36 50.02957 8.56903 367 ft 4 kts 254°
2026-05-05 18:36 50.02949 8.56872 366 ft 3 kts 249°
2026-05-05 18:36 50.02948 8.56866 366 ft 0 kts 249°